Low Isles Observation History
Time Wind Speed Temp Pressure Rel. Hum Rain
30/10:00am SE 17-23 kts 27.0°c 1012.4 hPa 86% 0.0mm
30/09:30am SE 17-19 kts 26.9°c 1012.3 hPa 87% 0.0mm
30/09:00am ESE 17-24 kts 26.9°c 1012.2 hPa 87% 7.2mm
30/08:30am ESE 15-20 kts 26.6°c 1011.8 hPa 88% 7.2mm
30/08:00am SE 16-18 kts 26.5°c 1011.4 hPa 88% 7.0mm
30/07:30am SE 18-21 kts 26.4°c 1011.0 hPa 89% 7.0mm
30/07:00am SE 23-26 kts 26.2°c 1010.8 hPa 87% 6.8mm
30/06:30am SE 22-26 kts 26.3°c 1010.5 hPa 88% 6.6mm
30/06:00am SE 22-27 kts 26.3°c 1010.1 hPa 90% 6.6mm
30/05:30am SE 19-27 kts 25.7°c 1010.1 hPa 93% 6.6mm
30/05:00am SE 21-25 kts 26.5°c 1009.9 hPa 89% 5.6mm
30/04:30am SE 22-26 kts 25.8°c 1009.6 hPa 90% 5.6mm
30/04:12am SE 20-32 kts 26.4°c 1009.6 hPa 86% 4.8mm
30/04:00am SE 19-22 kts 26.6°c 1009.5 hPa 87% 4.8mm
30/03:30am SSE 17-20 kts 26.6°c 1009.4 hPa 87% 4.6mm
30/03:00am SE 18-21 kts 26.1°c 1009.7 hPa 88% 4.6mm
30/02:30am SE 18-21 kts 26.8°c 1009.9 hPa 86% 4.4mm
30/02:00am SE 19-23 kts 26.5°c 1010.1 hPa 86% 4.4mm
30/01:30am SSE 17-19 kts 26.5°c 1010.3 hPa 87% 4.4mm
30/01:00am SE 19-24 kts 26.3°c 1010.7 hPa 87% 4.2mm
30/12:30am SE 17-19 kts 26.9°c 1011.1 hPa 84% 4.0mm
30/12:00am SE 17-19 kts 26.9°c 1011.5 hPa 83% 4.0mm
Time Wind Speed Temp Pressure Rel. Hum Rain
29/11:30pm SE 17-21 kts 27.3°c 1011.9 hPa 82% 4.0mm
29/11:00pm ESE 20-24 kts 27.5°c 1012.0 hPa 79% 4.0mm
29/10:30pm ESE 20-24 kts 27.5°c 1012.1 hPa 78% 4.0mm
29/10:00pm ESE 20-23 kts 27.4°c 1012.1 hPa 78% 4.0mm
29/09:30pm ESE 19-24 kts 27.6°c 1011.9 hPa 77% 4.0mm
29/09:00pm ESE 21-25 kts 27.5°c 1011.8 hPa 79% 4.0mm
29/08:30pm SE 19-24 kts 27.3°c 1011.6 hPa 80% 4.0mm
29/08:00pm SE 20-24 kts 27.2°c 1011.3 hPa 82% 4.0mm
29/07:30pm SE 20-23 kts 27.0°c 1011.1 hPa 85% 4.0mm
29/07:00pm SE 21-25 kts 26.6°c 1010.7 hPa 87% 4.0mm
29/06:30pm SE 23-26 kts 26.4°c 1010.5 hPa 89% 4.0mm
29/06:00pm SSE 23-28 kts 25.7°c 1010.2 hPa 91% 3.6mm
29/05:30pm SSE 21-25 kts 26.2°c 1009.9 hPa 92% 3.4mm
29/05:00pm SE 17-19 kts 26.5°c 1009.7 hPa 90% 3.0mm
29/04:30pm SE 18-23 kts 27.3°c 1009.4 hPa 85% 2.2mm
29/04:00pm ESE 14-17 kts 28.4°c 1009.1 hPa 79% 2.0mm
29/03:30pm ESE 14-17 kts 28.3°c 1009.0 hPa 78% 2.0mm
29/03:00pm ESE 15-19 kts 28.5°c 1009.1 hPa 78% 2.0mm
29/02:30pm ESE 16-19 kts 27.8°c 1009.3 hPa 80% 2.0mm
29/02:00pm SE 16-19 kts 27.5°c 1009.5 hPa 86% 2.0mm
29/01:30pm ENE 12-17 kts 26.3°c 1009.9 hPa 88% 1.8mm
29/01:00pm SE 16-19 kts 28.4°c 1010.1 hPa 79% 0.2mm
29/12:30pm SE 20-26 kts 27.4°c 1010.5 hPa 74% 0.2mm
29/12:00pm ESE 17-21 kts 28.9°c 1010.8 hPa 76% 0.2mm
29/11:30am ESE 19-23 kts 28.4°c 1011.1 hPa 80% 0.2mm
29/11:00am SE 20-23 kts 28.0°c 1011.5 hPa 82% 0.2mm
29/10:30am SE 17-21 kts 27.5°c 1011.8 hPa 82% 0.0mm
29/10:00am SE 17-19 kts 27.0°c 1011.9 hPa 84% 0.0mm
29/09:30am SE 15-17 kts 27.0°c 1011.8 hPa 86% 0.0mm
29/09:00am SSE 15-17 kts 26.3°c 1011.7 hPa 88% 2.8mm
29/08:30am SE 16-19 kts 26.2°c 1011.4 hPa 88% 2.8mm
29/08:00am SE 14-16 kts 26.1°c 1011.1 hPa 89% 2.8mm
29/07:30am SE 17-19 kts 26.2°c 1010.8 hPa 89% 2.8mm
29/07:00am SE 15-17 kts 25.8°c 1010.5 hPa 89% 2.8mm
29/06:30am SE 19-23 kts 25.7°c 1010.2 hPa 89% 2.8mm
29/06:00am SE 20-23 kts 26.1°c 1010.0 hPa 87% 2.8mm
29/05:30am SE 18-21 kts 26.0°c 1009.8 hPa 85% 2.8mm
29/05:00am SE 17-20 kts 25.7°c 1009.6 hPa 89% 2.8mm
29/04:30am SE 17-21 kts 26.0°c 1009.3 hPa 87% 2.8mm
29/04:00am SE 17-20 kts 26.4°c 1009.1 hPa 86% 2.8mm
29/03:30am SSE 17-20 kts 26.3°c 1009.0 hPa 87% 2.6mm
29/03:01am ESE 17-27 kts 25.5°c 1009.3 hPa 89% 2.6mm
29/03:00am SE 18-27 kts 25.5°c 1009.3 hPa 88% 2.6mm
29/02:30am SE 19-22 kts 26.6°c 1009.5 hPa 86% 2.0mm
29/02:00am SE 19-22 kts 26.2°c 1009.8 hPa 87% 2.0mm
29/01:30am SE 17-19 kts 25.8°c 1010.0 hPa 90% 1.8mm
29/01:00am SSE 16-19 kts 26.0°c 1010.4 hPa 89% 1.4mm
29/12:30am SE 15-17 kts 26.7°c 1010.9 hPa 86% 1.0mm
29/12:00am SSE 17-20 kts 26.6°c 1011.2 hPa 85% 1.0mm
Time Wind Speed Temp Pressure Rel. Hum Rain
28/11:30pm SE 16-18 kts 26.6°c 1011.2 hPa 87% 1.0mm
28/11:00pm ESE 16-19 kts 26.4°c 1011.2 hPa 85% 1.0mm
28/10:30pm E 17-23 kts 26.2°c 1011.4 hPa 90% 1.0mm
28/10:00pm SE 15-17 kts 26.8°c 1011.6 hPa 87% 0.6mm
28/09:30pm SE 15-18 kts 26.8°c 1011.5 hPa 88% 0.6mm
28/09:00pm SE 22-27 kts 26.3°c 1011.3 hPa 86% 0.6mm
28/08:30pm SE 17-28 kts 26.4°c 1010.9 hPa 87% 0.2mm
28/08:28pm SE 18-28 kts 26.2°c 1010.8 hPa 86% 0.2mm
28/08:00pm SE 19-22 kts 27.4°c 1010.5 hPa 83% 0.0mm
28/07:30pm SE 19-22 kts 27.4°c 1010.2 hPa 82% 0.0mm
28/07:00pm SE 20-23 kts 27.5°c 1009.8 hPa 81% 0.0mm
28/06:30pm SE 19-23 kts 27.6°c 1009.6 hPa 82% 0.0mm
28/06:00pm ESE 17-21 kts 27.5°c 1009.4 hPa 80% 0.0mm
28/05:30pm SE 17-20 kts 27.7°c 1009.2 hPa 82% 0.0mm
28/05:00pm ESE 18-21 kts 27.8°c 1009.1 hPa 81% 0.0mm
28/04:30pm SE 19-22 kts 28.0°c 1009.0 hPa 79% 0.0mm
28/04:00pm SE 21-23 kts 27.9°c 1009.1 hPa 78% 0.0mm
28/03:30pm ESE 19-22 kts 28.1°c 1009.3 hPa 78% 0.0mm
28/03:00pm ESE 20-24 kts 28.5°c 1009.6 hPa 77% 0.0mm
28/02:30pm ESE 17-20 kts 28.6°c 1009.8 hPa 75% 0.0mm
28/02:00pm ESE 17-20 kts 28.8°c 1009.8 hPa 76% 0.0mm
28/01:30pm SE 16-19 kts 28.8°c 1010.2 hPa 76% 0.0mm
28/01:00pm ESE 16-18 kts 29.3°c 1010.5 hPa 75% 0.0mm
28/12:30pm SE 15-19 kts 28.9°c 1011.0 hPa 77% 0.0mm
28/12:00pm SE 13-15 kts 28.4°c 1011.2 hPa 77% 0.0mm
28/11:30am SE 14-16 kts 28.0°c 1011.6 hPa 78% 0.0mm
28/11:00am SE 14-16 kts 27.9°c 1011.9 hPa 79% 0.0mm
28/10:30am SE 15-17 kts 27.5°c 1012.1 hPa 82% 0.0mm
28/10:00am SE 14-17 kts 27.0°c 1012.2 hPa 85% 0.0mm
28/09:30am SSE 17-18 kts 26.5°c 1012.2 hPa 85% 0.0mm
28/09:00am SE 17-20 kts 26.2°c 1012.3 hPa 87% 23.4mm
28/08:30am SE 16-19 kts 26.0°c 1012.1 hPa 90% 23.4mm
28/08:00am SSE 16-18 kts 26.1°c 1011.6 hPa 89% 23.2mm
28/07:30am SSE 14-17 kts 25.6°c 1011.2 hPa 91% 23.2mm
28/07:07am SE 19-31 kts 25.5°c 1011.1 hPa 87% 22.4mm
28/07:00am SE 14-16 kts 26.6°c 1011.0 hPa 84% 21.2mm
28/06:30am SE 15-19 kts 26.4°c 1010.5 hPa 84% 21.2mm
28/06:00am SSE 15-17 kts 26.4°c 1010.3 hPa 84% 21.2mm
28/05:30am SE 15-18 kts 26.4°c 1010.1 hPa 85% 21.2mm
28/05:00am SE 16-18 kts 26.4°c 1009.8 hPa 87% 21.2mm
28/04:30am SSE 9-11 kts 25.4°c 1009.9 hPa 89% 21.2mm
28/04:00am SE 13-16 kts 24.8°c 1009.9 hPa 89% 21.0mm
28/03:30am SE 17-22 kts 25.1°c 1010.1 hPa 87% 21.0mm
28/03:00am SSE 14-16 kts 26.6°c 1010.1 hPa 79% 20.6mm
28/02:30am SSE 15-17 kts 26.6°c 1010.4 hPa 80% 20.6mm
28/02:00am SSE 17-19 kts 26.6°c 1010.5 hPa 80% 20.6mm
28/01:30am SSE 16-18 kts 26.5°c 1011.0 hPa 79% 20.6mm
28/01:00am SE 17-19 kts 26.7°c 1011.3 hPa 81% 20.6mm
28/12:30am SE 17-20 kts 26.7°c 1011.4 hPa 81% 20.6mm
28/12:00am SE 18-21 kts 26.7°c 1011.5 hPa 79% 20.6mm